Location: Unspecified
(0.0000°N, 0.0000°E)
Time: 02:06:06
(UTC+00:00)

Fuji - Pass Details

Date: 05 December 2022
Orbit: 1479 x 1496 km, 50.0° (Epoch: 26 January)

Event Time Altitude Azimuth Distance (km) Brightness Sun altitude
Rises 18:24:33 0° 305° (NW) 4,587 ? -7.8°
Reaches altitude 10° 18:27:49 10° 297° (WNW) 3,610 ? -8.6°
Maximum altitude 18:35:58 38° 233° (SW) 2,117 ? -10.4°
Drops below altitude 10° 18:44:13 10° 167° (SSE) 3,629 ? -12.3°
Sets 18:47:32 0° 159° (SSE) 4,613 ? -13.1°
